Vorticity
6 0 5 1 2 4 4 4 3 4 5 4 4 4 5 5 4 6 4 3 3 3 4 4 4 4 3 3 3 4 4 4 4 3 3 3 3 3 5 4 7 2 3
2 -3 0 6 1 5 5 6 4 4 4 4 4 4 5 5 4 6 5 2 1 5 4 3 4 4 4 4 4 4 4 3 4 4 4 4 4 5 6 8 6 2 10
5 3 -10 -18 -7 6 -1 1 3 4 5 4 4 5 5 5 4 6 3 1 1 3 5 3 3 4 4 4 4 5 5 5 5 5 6 5 6 7 6 4 2 10 7
24 -6 -16 4 14 6 21 0 4 4 4 4 4 5 5 4 5 5 2 -0 2 6 6 4 3 3 4 4 5 5 5 6 5 5 5 7 6 6 4 3 11 7 11
4 -7 -3 -9 -33 -8 -10 4 4 5 5 4 4 4 5 4 5 5 6 2 7 1 7 5 4 4 4 4 4 4 4 5 6 4 5 8 5 7 4 13 5 7 7
52 65 11 -2 -8 -0 3 4 5 6 5 4 3 4 4 5 5 5 9 -3 4 3 7 6 5 6 5 4 4 4 4 5 4 5 5 6 7 5 11 5 9 7 5
13 -24 49 27 16 8 6 4 3 2 3 4 3 3 4 4 8 9 14 1 -22 9 5 5 6 6 4 3 4 5 5 5 7 1 10 5 4 11 6 6 4 5 8
-19 20 23 41 -1 0 -8 -3 2 3 0 1 5 4 7 3 2 8 10 -4 4 -5 21 3 3 2 2 2 7 8 5 10 7 12 7 4 10 6 6 6 9 2 9
-43 21 12 11 37 5 11 8 5 4 7 6 5 -2 0 13 10 8 -14 8 25 0 10 6 -6 3 11 13 14 13 11 13 11 9 8 9 4 2 12 15 7 8 8
13 -5 22 6 13 40 0 -6 9 3 0 6 -8 20 29 22 31 0 28 30 10 -7 15 23 29 17 10 8 -1 4 -3 9 8 5 7 -1 12 14 8 11 4 7 4
13 -10 -5 14 25 1 32 28 38 29 45 20 20 16 -2 18 0 12 17 16 10 14 11 4 5 -1 4 -3 -6 4 7 -1 9 7 15 23 5 10 1 7 5 7 8
25 15 18 9 -5 6 17 -2 17 11 23 10 8 22 12 -5 -0 -9 2 -13 22 -15 -2 12 5 4 5 9 15 14 4 13 41 41 1 18 4 5 5 5 4 6 3
0 4 2 20 14 -2 -10 9 -7 -10 -1 -4 10 -8 -17 36 21 4 25 2 7 5 18 8 8 3 8 11 3 6 30 18 6 8 4 5 6 6 6 7 4 10 19
5 6 6 21 11 29 38 11 4 -18 1 12 10 -14 -8 1 12 -9 22 28 6 20 -1 17 29 3 3 10 -2 25 42 -4 -0 5 3 5 7 8 6 7 11 5 8
11 9 13 2 -1 -19 -10 -10 -12 21 13 -8 2 3 11 7 0 10 33 14 16 6 -13 -10 21 8 3 -1 8 10 6 1 -1 4 -0 -0 0 5 6 4 3 8 10
32 -5 8 -7 6 -7 3 3 5 5 18 22 5 7 25 28 30 15 15 13 23 -7 -3 21 6 1 8 25 1 -2 2 5 3 3 -1 0 2 2 6 6 7 5 19
26 34 44 40 38 24 31 30 35 40 39 33 34 47 11 42 -1 15 24 23 31 16 38 16 26 33 29 14 7 0 -2 1 5 7 -1 -0 3 3 6 6 7 9 18
2 -8 -4 4 3 7 10 9 8 25 9 14 18 5 10 12 14 5 -1 12 6 52 -23 27 13 1 -2 -2 10 -2 3 6 4 9 4 1 2 1 4 6 9 12 12
0 6 12 12 12 17 13 4 -2 -0 0 18 14 19 17 0 14 7 2 12 26 -8 6 24 24 6 0 1 3 3 3 4 5 7 5 5 5 2 4 4 8 9 6
2 3 2 -1 -4 9 -3 -2 3 1 25 -8 -1 5 14 1 4 1 3 6 -3 -10 5 2 5 1 6 10 8 4 3 3 3 4 4 7 7 3 5 3 8 9 9
6 -0 0 2 7 9 8 7 4 1 -0 1 0 -5 -7 -6 3 3 -0 -15 3 -1 0 3 6 8 14 13 7 4 4 3 3 6 5 8 7 5 5 4 9 8 8
3 4 7 11 18 6 3 2 1 8 12 14 11 7 8 6 2 5 4 7 -0 0 5 6 9 11 5 3 3 6 3 3 4 4 7 11 9 6 3 3 6 8 11
3 3 2 0 1 3 6 4 9 13 7 5 8 9 13 12 12 11 13 16 17 11 24 31 18 12 22 11 7 7 4 5 3 4 11 8 10 7 5 4 6 8 15
2 2 2 4 7 3 2 3 4 6 5 11 9 10 8 8 10 11 11 10 5 8 6 -2 3 4 2 8 8 6 7 4 1 4 10 7 9 9 6 5 5 10 17
5 5 6 8 6 -0 -2 4 5 4 4 8 5 5 10 7 6 8 10 11 11 9 5 1 5 10 7 6 7 4 5 6 2 9 10 8 9 10 7 6 7 13 18
2 1 -2 -0 -2 4 10 15 15 11 8 7 11 9 6 9 8 6 4 4 7 7 8 8 9 8 7 4 4 3 3 6 10 12 10 9 9 10 10 7 9 14 17
Height
5814 5817 5821 5824 5827 5829 5832 5835 5838 5840 5842 5844 5847 5847 5848 5849 5849 5850 5851 5850 5850 5851 5850 5849 5850 5849 5848 5848 5846 5845 5844 5842 5839 5837 5834 5832 5828 5826 5824 5821 5819 5815 5812
5809 5803 5814 5815 5818 5821 5824 5828 5830 5833 5834 5837 5839 5840 5842 5842 5844 5843 5845 5844 5844 5845 5845 5844 5843 5843 5842 5843 5842 5841 5839 5838 5835 5832 5830 5827 5825 5822 5820 5817 5814 5810 5808
5796 5800 5805 5805 5809 5813 5816 5819 5823 5824 5827 5829 5831 5833 5835 5836 5837 5837 5839 5839 5838 5839 5840 5839 5838 5836 5836 5835 5836 5835 5833 5832 5830 5828 5826 5823 5821 5818 5815 5812 5809 5804 5800
5785 5791 5797 5796 5799 5803 5806 5810 5814 5817 5820 5822 5823 5826 5827 5828 5831 5830 5831 5831 5833 5833 5833 5833 5832 5831 5829 5828 5828 5828 5826 5825 5823 5820 5819 5817 5814 5811 5809 5806 5803 5798 5795
5775 5782 5787 5789 5791 5796 5799 5802 5805 5809 5811 5813 5815 5816 5819 5821 5822 5824 5826 5826 5825 5825 5825 5827 5826 5825 5824 5822 5821 5819 5818 5816 5814 5813 5812 5810 5807 5805 5802 5801 5796 5792 5789
5763 5773 5774 5779 5783 5788 5792 5795 5799 5801 5803 5804 5806 5808 5809 5812 5814 5816 5818 5819 5817 5818 5817 5819 5819 5818 5817 5815 5813 5811 5809 5808 5806 5805 5803 5803 5801 5797 5795 5793 5790 5786 5782
5755 5758 5761 5767 5771 5777 5782 5786 5789 5791 5793 5794 5797 5799 5800 5802 5806 5808 5810 5808 5808 5808 5810 5808 5809 5809 5808 5806 5804 5803 5801 5800 5799 5798 5797 5795 5793 5789 5786 5785 5782 5778 5774
5748 5751 5752 5755 5760 5766 5769 5775 5778 5781 5782 5785 5787 5788 5790 5793 5795 5796 5797 5796 5799 5801 5801 5801 5800 5800 5799 5797 5795 5794 5793 5792 5792 5790 5788 5787 5784 5782 5779 5776 5772 5769 5767
5740 5744 5746 5747 5751 5756 5760 5765 5767 5769 5772 5773 5774 5776 5778 5780 5782 5785 5784 5786 5789 5790 5790 5790 5791 5791 5790 5790 5787 5786 5785 5784 5783 5782 5781 5780 5777 5774 5771 5768 5764 5762 5758
5731 5735 5740 5741 5744 5748 5750 5753 5756 5758 5759 5760 5759 5761 5765 5769 5769 5773 5774 5776 5778 5779 5779 5780 5780 5781 5781 5780 5778 5777 5777 5776 5775 5774 5771 5771 5769 5765 5765 5760 5756 5752 5747
5725 5728 5735 5735 5737 5739 5742 5745 5748 5748 5749 5749 5753 5757 5758 5760 5761 5765 5764 5766 5766 5767 5769 5770 5772 5772 5772 5770 5769 5768 5769 5768 5767 5765 5764 5762 5762 5759 5756 5752 5747 5743 5739
5717 5721 5726 5727 5730 5733 5736 5737 5740 5741 5743 5744 5748 5749 5752 5753 5754 5755 5756 5758 5758 5759 5758 5759 5761 5762 5761 5759 5759 5760 5760 5760 5759 5758 5758 5757 5753 5751 5747 5744 5739 5735 5730
5706 5712 5716 5719 5722 5725 5727 5729 5731 5732 5733 5735 5738 5740 5742 5742 5745 5745 5745 5747 5749 5748 5746 5747 5749 5751 5751 5751 5751 5752 5751 5751 5752 5750 5749 5746 5745 5741 5738 5735 5729 5727 5723
5698 5702 5706 5709 5713 5714 5716 5720 5723 5724 5724 5727 5729 5731 5731 5732 5731 5733 5733 5734 5736 5735 5737 5736 5737 5739 5741 5740 5742 5741 5741 5742 5742 5741 5739 5737 5736 5734 5730 5726 5721 5716 5713
5692 5693 5696 5698 5703 5705 5708 5710 5711 5711 5712 5716 5720 5718 5719 5719 5719 5719 5720 5721 5722 5721 5724 5725 5727 5728 5728 5730 5732 5733 5733 5732 5733 5733 5732 5731 5727 5724 5720 5716 5711 5709 5706
5683 5686 5689 5692 5695 5697 5697 5698 5699 5700 5702 5703 5705 5706 5706 5707 5707 5706 5707 5707 5708 5710 5711 5715 5716 5716 5718 5719 5722 5724 5725 5724 5723 5722 5722 5721 5718 5715 5712 5708 5705 5700 5696
5676 5677 5681 5683 5684 5686 5686 5688 5687 5687 5690 5691 5692 5693 5695 5697 5697 5696 5695 5697 5696 5698 5701 5701 5703 5704 5707 5711 5712 5713 5713 5712 5712 5711 5711 5709 5707 5706 5703 5699 5696 5691 5686
5671 5672 5673 5673 5674 5675 5675 5677 5677 5678 5680 5682 5683 5682 5685 5685 5687 5687 5688 5688 5689 5690 5691 5691 5693 5696 5698 5700 5701 5702 5703 5702 5701 5700 5700 5700 5698 5697 5693 5690 5687 5681 5678
5665 5665 5665 5665 5665 5665 5665 5667 5667 5668 5670 5671 5672 5673 5674 5675 5677 5678 5680 5681 5682 5682 5683 5684 5685 5688 5689 5689 5691 5692 5693 5692 5691 5691 5690 5689 5688 5686 5683 5681 5679 5675 5670
5657 5657 5657 5657 5657 5658 5656 5656 5657 5658 5658 5660 5660 5661 5663 5664 5666 5668 5669 5669 5671 5672 5674 5674 5676 5677 5678 5680 5681 5681 5683 5683 5681 5680 5681 5679 5678 5676 5674 5671 5668 5665 5661
5649 5647 5645 5644 5644 5643 5644 5644 5644 5645 5646 5647 5647 5648 5650 5653 5655 5657 5658 5654 5658 5661 5662 5664 5665 5666 5666 5668 5668 5669 5669 5670 5670 5670 5670 5669 5667 5666 5663 5661 5658 5654 5650
5638 5635 5634 5632 5632 5631 5630 5630 5630 5631 5630 5631 5633 5633 5633 5636 5639 5642 5644 5644 5646 5648 5648 5648 5650 5653 5653 5654 5655 5659 5658 5657 5657 5660 5657 5656 5655 5653 5651 5649 5647 5643 5639
5621 5620 5619 5619 5620 5616 5614 5614 5614 5614 5614 5616 5616 5617 5618 5620 5621 5624 5627 5629 5630 5632 5635 5634 5637 5638 5639 5639 5641 5642 5642 5644 5646 5645 5645 5644 5644 5642 5640 5639 5636 5632 5628
5606 5602 5600 5599 5598 5596 5594 5593 5593 5594 5595 5596 5598 5600 5602 5602 5605 5606 5608 5612 5615 5617 5621 5621 5621 5624 5624 5623 5627 5628 5629 5631 5632 5633 5633 5633 5632 5631 5629 5629 5625 5622 5618
5581 5579 5577 5573 5570 5569 5569 5569 5569 5570 5573 5574 5574 5578 5581 5584 5587 5588 5592 5594 5597 5601 5602 5604 5606 5607 5609 5612 5615 5616 5618 5618 5620 5621 5621 5620 5620 5620 5618 5616 5614 5612 5610
5552 5547 5544 5541 5539 5539 5537 5539 5540 5543 5547 5549 5552 5555 5558 5560 5564 5569 5572 5576 5580 5583 5585 5589 5591 5593 5595 5598 5600 5602 5605 5605 5606 5608 5608 5609 5609 5608 5608 5605 5603 5602 5601